• Join FlightAware (Why Join?)
  • Login
  • US Flag 
08:07AM EST


 

Airport Tracker/Info


-or-


 

Live Flight TrackerFlight Track Log ✈ JBU1329 ✈ 04-Jun-2013 ✈ KBOS - KBWI

Flight Track Log - Related Links

Times and Time Zones

All times are in EDT time to prevent confusion due to time zone crossing. See the JBU1329 flight status page for this flight to view local times or setup timezone preferences in your user account.

Time Position Orientation Groundspeed Altitude Reporting Facility
EDT Latitude Longitude Course Direction KTS MPH feet Rate Location/Type
09:20AM 42.3833 -71.0167 262° West 159 183 1,000  Level KA90
09:21AM 42.4000 -71.0833 289° West 201 231 3,400 2,473 Climbing KA90
09:22AM 42.3747 -71.1756 250° West 251 289 6,400 3,408 Climbing Boston Center
09:23AM 42.2759 -70.7528 228° Southwest  Level FlightAware Approximate
09:23AM 42.3253 -71.2353 222° Southwest 263 303 10,500  Level Boston Center
09:24AM 42.2137 -70.8626 240° Southwest  Level FlightAware Approximate
09:24AM 42.2908 -71.3372 245° Southwest 273 314 13,200  Level Boston Center
09:25AM 42.1810 -70.9903 262° West  Level FlightAware Approximate
09:25AM 42.2625 -71.4386 249° West 303 349 15,900  Level Boston Center
09:26AM 42.2325 -71.5681 253° West 331 381 18,900 2,500 Climbing Boston Center
09:27AM 42.2042 -71.6806 251° West 344 396 20,900 2,150 Climbing Boston Center
09:28AM 42.1672 -71.8069 249° West 349 402 23,200 2,300 Climbing Boston Center
09:29AM 42.1075 -71.9253 236° Southwest 360 414 25,500 2,500 Climbing Boston Center
09:30AM 42.0517 -72.0403 237° Southwest 378 435 28,200 1,909 Climbing Boston Center
09:31AM 41.9978 -72.1553 238° Southwest 378 435 29,700 1,727 Climbing Boston Center
09:32AM 41.9314 -72.2867 236° Southwest 373 429 32,000 1,950 Climbing Boston Center
09:33AM 41.8753 -72.3983 236° Southwest 368 423 33,600 1,300 Climbing Boston Center
09:34AM 41.8189 -72.5097 236° Southwest 368 423 34,600 950 Climbing Boston Center
09:35AM 41.7625 -72.6267 237° Southwest 368 423 35,500 700 Climbing Boston Center
09:36AM 41.6975 -72.7569 236° Southwest 373 429 36,000 250 Climbing Boston Center
09:37AM 41.6367 -72.8789 236° Southwest 384 442 36,000  Level Boston Center
09:38AM 41.5758 -73.0061 237° Southwest 397 457 36,000  Level Boston Center
09:39AM 41.5231 -73.1056 235° Southwest 402 463 36,000  Level Boston Center
09:40AM 41.4639 -73.2294 238° Southwest 394 453 36,000  Level Boston Center
09:42AM 41.3542 -73.4439 236° Southwest 386 444 36,000  Level New York Center
09:43AM 41.2911 -73.5656 235° Southwest 392 451 36,000  Level New York Center
09:44AM 41.2236 -73.6842 233° Southwest 402 463 36,000  Level New York Center
09:45AM 41.1539 -73.8022 232° Southwest 407 468 36,000  Level New York Center
09:46AM 41.0822 -73.9203 231° Southwest 407 468 36,000 -248 Level New York Center
09:47AM 41.0144 -74.0381 233° Southwest 412 474 35,500 -605 Descending New York Center
09:48AM 40.9444 -74.1528 231° Southwest 412 474 34,800 -706 Descending New York Center
09:49AM 40.8703 -74.2697 230° Southwest 412 474 34,100 -700 Descending New York Center
09:50AM 40.7981 -74.3839 230° Southwest 412 474 33,400 -694 Descending New York Center
09:51AM 40.7297 -74.5036 233° Southwest 412 474 32,700 -1,091 Descending New York Center
09:52AM 40.6572 -74.6172 230° Southwest 412 474 31,200 -1,750 Descending New York Center
09:53AM 40.5844 -74.7389 232° Southwest 419 482 29,200 -2,017 Descending New York Center
09:54AM 40.5100 -74.8464 228° Southwest 419 482 27,200 -1,950 Descending New York Center
09:55AM 40.4333 -74.9564 228° Southwest 412 474 25,300 -1,884 Descending New York Center
09:56AM 40.3586 -75.0608 227° Southwest 407 468 23,400 -1,881 Descending New York Center
09:57AM 40.2839 -75.1650 227° Southwest 402 463 21,600 -1,815 Descending New York Center
09:58AM 40.2133 -75.2667 228° Southwest 397 457 19,800 -1,721 Descending New York Center
09:59AM 40.1386 -75.3650 225° Southwest 391 450 18,100 -893 Descending New York Center
10:00AM 40.0703 -75.4636 228° Southwest 376 433 18,000 -50 Descending New York Center
10:01AM 39.9997 -75.5589 226° Southwest 371 427 18,000  Level New York Center
10:02AM 39.9311 -75.6572 228° Southwest 371 427 18,000 -308 Level New York Center
10:03AM 39.8703 -75.7611 233° Southwest 376 433 17,400 -1,531 Descending New York Center
10:05AM 39.7500 -76.0000 237° Southwest 340 391 13,000 -1,580 Descending Potomac TRACON
10:06AM 39.7000 -76.1000 237° Southwest 297 342 12,000 -857 Descending Potomac TRACON
10:07AM 39.6500 -76.1833 232° Southwest 274 315 11,200 -1,316 Descending Potomac TRACON
10:08AM 39.6333 -76.2667 255° West 267 307 9,500 -1,774 Descending Potomac TRACON
10:09AM 39.6000 -76.3500 243° Southwest 264 304 7,800 -1,559 Descending Potomac TRACON
10:10AM 39.5833 -76.4500 258° West 258 297 6,200 -1,150 Descending Potomac TRACON
10:11AM 39.5333 -76.5167 226° Southwest 280 322 5,500 -842 Descending Potomac TRACON
10:12AM 39.4667 -76.5167 180° South 298 343 4,600 -1,100 Descending Potomac TRACON
10:13AM 39.3833 -76.4833 163° South 282 325 3,300 -800 Descending Potomac TRACON
10:14AM 39.3167 -76.4833 180° South 258 297 3,000 -300 Descending Potomac TRACON